User: anonymous
Location: Unspecified
(0.0000°N, 0.0000°E)
Time: 18:27:05
(UTC+00:00)
Language:

N. Korean satellite - Orbit

View from above orbital plane
View from above orbital plane
View from above satellite
View from above satellite

Ground track
Ground track

The orbit data is extracted from the following two-line orbital elements,

1 39026U 12072A   14208.41999858  .00002473  00000-0  13339-3 0  1091
2 39026 097.3247 246.5675 0050656 288.7854 070.7886 15.14589284 89463
Epoch (UTC): 27 July 2014 10:04:47
Eccentricity: 0.0050656
inclination: 97.3247°
perigee height: 487 km
apogee height: 557 km
right ascension of ascending node: 246.5675°
argument of perigee: 288.7854°
revolutions per day: 15.14589284
mean anomaly at epoch: 70.7886°
orbit number at epoch: 8946

The dashed part of the orbit path shows where the satellite is in the earth's shadow,  

DLR